TimeAKDT,TemperatureF,Dew PointF,Humidity,Sea Level PressureIn,VisibilityMPH,Wind Direction,Wind SpeedMPH,Gust SpeedMPH,PrecipitationIn,Events,Conditions,WindDirDegrees,DateUTC
12:53 AM,41.0,37.9,89,30.09,10.0,Calm,Calm,-,N/A,,Clear,0,2013-05-24 08:53:00
1:53 AM,39.0,36.0,89,30.09,10.0,Calm,Calm,-,N/A,,Clear,0,2013-05-24 09:53:00
2:53 AM,37.0,35.1,93,30.09,10.0,North,3.5,-,N/A,,Clear,360,2013-05-24 10:53:00
3:53 AM,39.0,35.1,86,30.07,10.0,NNE,6.9,-,N/A,,Clear,20,2013-05-24 11:53:00
4:53 AM,42.1,37.0,82,30.06,10.0,North,10.4,-,N/A,,Clear,10,2013-05-24 12:53:00
5:53 AM,42.1,37.0,82,30.05,10.0,North,11.5,-,N/A,,Clear,10,2013-05-24 13:53:00
6:53 AM,43.0,37.0,80,30.05,10.0,NNE,12.7,-,N/A,,Clear,20,2013-05-24 14:53:00
7:53 AM,46.9,37.9,71,30.04,10.0,NNE,10.4,-,N/A,,Clear,20,2013-05-24 15:53:00
8:53 AM,53.1,39.0,59,30.03,10.0,NNE,10.4,-,N/A,,Clear,30,2013-05-24 16:53:00
9:53 AM,55.9,37.9,51,30.02,10.0,NNE,9.2,-,N/A,,Clear,30,2013-05-24 17:53:00
10:53 AM,60.1,37.9,44,30.01,10.0,North,9.2,16.1,N/A,,Clear,350,2013-05-24 18:53:00
11:53 AM,61.0,37.0,41,30.00,10.0,Variable,4.6,-,N/A,,Clear,0,2013-05-24 19:53:00
12:53 PM,52.0,43.0,71,30.00,10.0,SSE,9.2,-,N/A,,Clear,160,2013-05-24 20:53:00
1:53 PM,53.1,44.1,71,30.00,10.0,SSE,8.1,-,N/A,,Clear,160,2013-05-24 21:53:00
2:53 PM,54.0,43.0,66,30.00,10.0,South,6.9,-,N/A,,Clear,170,2013-05-24 22:53:00
3:53 PM,54.0,43.0,66,30.01,10.0,SSE,8.1,-,N/A,,Clear,160,2013-05-24 23:53:00
4:53 PM,53.1,43.0,69,30.01,10.0,SSE,9.2,-,N/A,,Clear,160,2013-05-25 00:53:00
5:53 PM,52.0,43.0,71,30.01,10.0,Variable,6.9,-,N/A,,Clear,0,2013-05-25 01:53:00
6:53 PM,51.1,43.0,74,30.01,10.0,SSE,6.9,-,N/A,,Clear,160,2013-05-25 02:53:00
7:53 PM,50.0,43.0,77,30.02,10.0,SSE,9.2,-,N/A,,Clear,160,2013-05-25 03:53:00
8:53 PM,46.9,42.1,83,30.02,10.0,SSE,5.8,-,N/A,,Clear,160,2013-05-25 04:53:00
9:51 PM,44.6,42.8,93,30.03,10.0,Variable,3.5,-,N/A,,Scattered Clouds,0,2013-05-25 05:51:00
9:53 PM,45.0,43.0,93,30.03,10.0,Variable,4.6,-,N/A,,Scattered Clouds,0,2013-05-25 05:53:00
10:05 PM,44.6,42.8,93,30.03,10.0,South,4.6,-,N/A,,Mostly Cloudy,180,2013-05-25 06:05:00
10:33 PM,44.6,42.8,93,30.03,1.5,SSW,5.8,-,N/A,,Overcast,200,2013-05-25 06:33:00
10:42 PM,42.8,42.8,100,30.03,1.0,South,4.6,-,N/A,,Overcast,190,2013-05-25 06:42:00
10:53 PM,43.0,42.1,97,30.04,0.8,South,5.8,-,N/A,,Overcast,190,2013-05-25 06:53:00
11:14 PM,42.8,42.8,100,30.03,1.2,SSW,4.6,-,N/A,,Overcast,200,2013-05-25 07:14:00
11:43 PM,42.8,42.8,100,30.03,1.0,SW,3.5,-,N/A,,Mist,220,2013-05-25 07:43:00
11:53 PM,42.1,42.1,100,30.04,1.2,SSW,3.5,-,N/A,,Overcast,210,2013-05-25 07:53:00
11:59 PM,42.8,42.8,100,30.04,0.8,SW,3.5,-,N/A,,Mist,220,2013-05-25 07:59:00